Ana Sayfa
METAR-TAF:

METAR-TAF

Havaalanları :

Killeen, Teksas, Amerika Birleşik Devletleri

Enlem: 31-05N, Boylam: 097-41W, yükseklik: 258 m

Güncel hava durumu gözlemi

Rapor saat 22:56 UTC de 45 dakika önce yapıldı.
Rüzgar güneybatıdan 7 kt
Sıcaklık 16°C
Nem 17%
Basınç 1024 hPa
Görüş mesafesi: 16.1 km
Açık gökyüzü

METAR: KILE 272256Z AUTO 22007KT 10SM CLR 16/M09 A3025 RMK AO2 SLP243 T01611089

Saat: 17:41 (23:41 UTC)


TAF: eksik

4.000'den fazla havaalanı için hava durumu gözlemleri ve tahminleri (METAR ve TAF raporları).

Kullanılabilir istasyonlar harita üzerinde sarı ve kırmızı noktalarla gösterilir.

İstasyonun adını görmek için fareyi noktanın üzerinde gezdirin.

Sonrasında hava gözlem ve tahminlerini görmek için tıklayın.

Haritayı değiştirmek için: yaklaştırmak için siyah artı işaretli yeşil düğmeye ve uzaklaştırmak için de eksi işaretli düğmeye hızla tıklayın; bitişik haritalar için yeşil okları kullanın.


METAR-TAF: